Regional Weather Roundup
Issued by NWS Charleston, SC

Current Version | Previous Version | Graphics & Text | Print | Product List | Glossary On
Versions: 1 2 3 4 5 6 7 8 9 10 11 12 13 14 15 16 17 18 19 20 21 22 23 24 25 26 27 28 29 30 31 32 33 34 35 36 37 38 39 40 41 42 43 44 45 46 47 48 49 50
000 ASUS42 KCHS 180212 RWRCHS REGIONAL WEATHER ROUNDUP NATIONAL WEATHER SERVICE CHARLESTON SC 1000 PM EDT TUE OCT 17 2017 NOTE: "FAIR" INDICATES FEW OR NO CLOUDS BELOW 12,000 FEET WITH NO SIGNIFICANT WEATHER AND/OR OBSTRUCTIONS TO VISIBILITY. NOT ALL STATIONS ARE QUALITY CONTROLLED. USE DATA WITH CAUTION... ESPECIALLY DEWPOINT OBSERVATIONS. SCZ027-030-031-034>040-042>050-180300- ...SOUTHEAST SOUTH CAROLINA... CITY SKY/WX TMP DP RH WIND PRES REMARKS N CHARLESTON CLEAR 53 48 83 NE6 30.28R WATERFRONT PRK N/A 64 53 67 NE10 30.11S JOHNS ISLAND FAIR 61 48 63 N6 30.27R PINOPOLIS N/A 63 50 63 NE12 30.18S MONCKS CORNER FAIR 54 45 71 NE3 30.28R SUMMERVILLE FAIR 50 48 93 CALM 30.29R BEAUFORT MCAS CLEAR 60 50 69 MISG 30.27R BEAUFORT ARPT FAIR 63 46 55 NE14 30.26R HILTON HEAD IS CLEAR 63 45 51 NE14G21 30.26R WALTERBORO CLEAR 48 43 81 CALM 30.29R ALLENDALE NOT AVBL ...SOUTHERN MIDLANDS AND PEE DEE... CITY SKY/WX TMP DP RH WIND PRES REMARKS GEORGETOWN FAIR 52 48 87 N6 30.28S KINGSTREE FAIR 46 45 93 CALM 30.30R ORANGEBURG CLEAR 54 41 61 NE5 30.29R BARNWELL N/A 52 45 76 CALM 30.28S AIKEN FAIR 46 43 87 NE3 30.32R MANNING FOG 46 45 93 MISG 30.29S VSB<1/4 COLUMBIA CLEAR 51 47 86 CALM 30.30R SUMTER CLEAR 50 42 74 NE5 30.28R FLORENCE CLEAR 53 42 66 NE6 30.31R MYRTLE BEACH CLEAR 54 47 77 N8 30.30R N MYRTLE BEACH CLEAR 52 47 83 NE6 30.29R $$ GAZ063-065-086>088-099>101-113>116-118-119-134>141-150-180300- ...SOUTHEAST GEORGIA... CITY SKY/WX TMP DP RH WIND PRES REMARKS SAVANNAH ARPT CLEAR 58 46 64 NE9 30.26R HUNTER AAF CLEAR 61 45 57 NE6 30.23R FORT STEWART CLEAR 54 46 74 NE6 30.23S STATESBORO CLEAR 51 43 75 CALM 30.27R SYLVANIA CLEAR 54 45 71 E5 30.28R CLAXTON FAIR 50 49 95 CALM 30.26S ...CSRA...CENTRAL AND FAR SOUTHEAST GEORGIA... CITY SKY/WX TMP DP RH WIND PRES REMARKS THOMSON CLEAR 49 46 87 CALM 30.34R AUGUSTA-BUSH CLEAR 49 45 86 CALM 30.28R AUGUSTA-DANIEL CLEAR 61 40 45 NE6 30.29R SWAINSBORO FAIR 54 46 76 MISG 30.28R VIDALIA CLEAR 55 46 71 NE3 30.26R EASTMAN FAIR 54 35 49 NE3 30.29R HAZLEHURST NOT AVBL ALMA CLEAR 59 42 53 VRB5 30.24R WAYCROSS CLEAR 55 47 74 CALM 30.24R JESUP NOT AVBL BAXLEY FAIR 55 41 58 NE6 30.25R BRUNSWICK CLEAR 64 50 59 NE9 30.23R SAINT SIMONS CLOUDY 68 57 68 NE15G24 30.21R $$ SCZ027-028-034-036>038-045-046-048>050-GAZ119-141-180300- ...LAKE AND SUPPLEMENTAL COASTAL OBSERVATIONS... STATION/POSITION TIME TEMP WIND PRES WAVE SWELL AIR SEA DIR/SP/G HT/PER HT/PER/DIR (UTC) (F) (DEG/KT/KT) (MB) (FT/S) (FT/S/D) WINYAH BAY 0045 59 10/ 7 1025.0 LAKE MURRAY 0120 58 350/ 2/ 3 1025.1 ACE BASIN NERRS 0045 59 10/ 1 1025.0 FORT PULASKI 0148 65 76 50/ 13/ 17 1024.5R SAPELO ISLAND 0100 67 40/ 12 1023.0 $$ ANZ835-935-AMZ111-154-330-350-352-354-370-450-454-472-180300- ...C-MAN AND BUOY OBSERVATIONS... STATION/POSITION TIME TEMP WIND PRES WAVE SWELL AIR SEA DIR/SP/G HT/PER HT/PER/DIR (UTC) (F) (DEG/KT/KT) (MB) (FT/S) (FT/S/D) BUOY 41004 0150 69 80 40/ 21/ 27 1023.1R 10/11 7/100/11 BUOY 41008 0150 70 78 60/ 21/ 25 1022.1R 7/ 7 3/100/10 FOLLY BEACH CMAN 0100 65 20/ 15/ 19 1024.9R CAPERS NEARSHORE 0108 64 76 40/ 16/ 23 1023.9R FRIPP NEARSHORE 0108 67 50/ 17/ 23 N/A STATION/POSITION TIME TEMP WIND PRES WAVE SWELL AIR SEA DIR/SP/G HT/PER HT/PER/DIR (UTC) (F) (DEG/KT/KT) (MB) (FT/S) (FT/S/D) 5E ST. MARYS GA 0130 79 N/A 8/11 3/ 90/11 FRYING PAN BUOY 0150 66 77 40/ 19/ 25 1024.0R 7/ 7 3/110/ 9 BUOY 41025 0150 65 81 20/ 17/ 23 1023.9R 6/ 9 3/ 50/ 9 CAPE LOOKOUT NC 0100 60 10/ 14/ 17 1024.6S BUOY 41002 0150 75 79 40/ 21/ 29 1019.3R 12/ 9 BUOY 41010 NOT AVBL ST AUGUSTINE FL 0200 74 79 20/ 25/ 29 1020.6R $$

USA.gov is the U.S. government's official web portal to all federal, state and local government web resources and services.